FENGYUN 1C DEB, 32461

Orbit data source: Space-Track

FENGYUN 1C DEB, 32461 is space debris in SSO originally from a launch on Mon, 10 May 1999 UTC launched from the Taiyaun Space Center, China (TSC). Fengyun 1C debris stems from the Chinese weather satellite Fengyun-1C, which was intentionally destroyed by a Chinese anti-satellite missile in 2007. This event dramatically increased the amount of space debris, with thousands of trackable fragments posing hazards to satellites and human spaceflight. The Fengyun 1C debris cloud has become a focal point in discussions about space sustainability and the need for international regulations to prevent the creation of new debris.

Loading next visibility...
Identifier
32461, 1999-025DBZ
Orbit
SSO
Country
Flag of CNCN / PRC
Related business
Manufacturer
Unknown
Mission
Spacecraft
Bus & Motor
Unknown
Mass
Unknown
Launch date (UTC)
1999-05-10 (26 years ago)
Launch vehicle
Unknown
Launch site
Taiyaun Space Center, China (TSC)
Object type
Payload
Rocket body
Debris
Shape & HBR
Unknown shape, 0.1 m
Radar Cross Section
Small (<0.1 m²)

Expand to show TLE details & history
Last TLE update: 4 days ago

TLE from 4 days ago
0 FENGYUN 1C DEB
1 32461U 99025DBZ 25284.59580475  .00001540  00000-0  14150-2 0  9998
2 32461  98.3375 147.7323 0233599 285.0611 101.7996 13.72619376664424
Epoch: 2025-10-11T14:17Z
TLE epoch observation values (Epoch: 2025-10-11T14:17:57.530Z)
Latitude
29.16928°
Longitude
-91.85037°
Altitude
1,032.79 km
Speed
7.318 km/s
True Right ascension
09h 32m 15s
True Declination
29° 01' 43"
Sunlit
Object was in daylight at epoch
Visualization orbit readout
Latitude
Unknown
Longitude
Unknown
Altitude
Unknown
Speed
Unknown
Apparent Right ascension
Unknown
Apparent Declination
Unknown
Sunlit
N/A
Visualization observer readout
Local Sidereal Time
13:14:54
Azimuth
Unknown
Elevation
Unknown
Doppler factor
Unknown
Orbital elements
Apogee altitude
1,159.443 km
Perigee altitude
815.327 km
Semi-major axis
7,365.522 km
Eccentricity
0.02336
Inclination
98.3375°
RAAN
147.7323°
Arg. of periapsis
285.0611°
True anomaly
104.40343°
Mean anomaly
101.7996°
Eccentric anomaly
103.10318°
Mean motion
3.43351 °/min
Orbital period
104.85 mins
BSTAR
0.001415
Loading maneuver chart data...
Computing Atmospheric mass density...

Documentation

Showing up to 5 results
|